Location: *
(33.8649°S, 62.1526°E)
Time: 04:27:05
(UTC+00:00)

ADEOS II - Pass Details

Date: 17 January 2021
Orbit: 799 x 801 km, 98.6° (Epoch: 27 February)

Event Time Altitude Azimuth Distance (km) Brightness Sun altitude
Exits shadow 20:35:37 29° 127° (SE) 1,462 3.7 -35.0°
Drops below altitude 10° 20:39:23 10° 170° (S) 2,403 5.4 -34.8°
Sets 20:41:58 0° 180° (S) 3,342 6.3 -34.7°
